Location: Unspecified
(0.0000°N, 0.0000°E)
Time: 00:00:27
(UTC+00:00)

FENGYUN 1C DEB - Visible Passes

Search period start: 07 December 2021 00:00
Search period end: 17 December 2021 00:00
Orbit: 809 x 1029 km, 98.6° (Epoch: 06 December)

Date Brightness Start Highest point End Pass type
(mag) Time Alt. Az. Time Alt. Az. Time Alt. Az.
07 Dec ? 19:07:29 10° SSE 19:12:49 62° ENE 19:18:23 10° N visible
08 Dec ? 19:15:31 10° SSE 19:20:56 77° ENE 19:26:37 10° N visible
09 Dec ? 19:23:36 10° S 19:29:03 86° WSW 19:34:47 10° NNW visible
10 Dec ? 19:31:45 10° S 19:37:10 69° WSW 19:42:53 10° NNW visible
11 Dec ? 19:39:57 10° S 19:45:18 56° WSW 19:50:55 10° NNW visible
12 Dec ? 19:48:14 10° S 19:53:26 44° WSW 19:58:54 10° NNW visible
13 Dec ? 18:16:27 10° ESE 18:19:48 16° ENE 18:23:13 10° NE visible
13 Dec ? 19:56:33 10° SSW 20:01:33 36° WSW 20:06:48 10° NW visible
14 Dec ? 18:23:51 10° ESE 18:27:53 20° ENE 18:32:02 10° NNE visible
14 Dec ? 20:04:57 10° SSW 20:09:41 29° WSW 20:14:38 10° NW visible
15 Dec ? 18:31:26 10° SE 18:35:58 25° ENE 18:40:41 10° NNE visible
15 Dec ? 20:13:28 10° SSW 20:17:49 24° WSW 20:22:21 10° NW visible
16 Dec ? 18:39:09 10° SE 18:44:04 31° ENE 18:49:12 10° NNE visible
16 Dec ? 20:22:05 10° SW 20:25:57 19° WSW 20:29:56 10° WNW visible
